Location: Kellogg
(38.0159°N, 90.0546°W)
Time: 22:19:28
(UTC+00:00)

Transit 4A - Pass Details

Date: 18 September 2024
Orbit: 865 x 978 km, 66.8° (Epoch: 11 October)

Event Time Altitude Azimuth Distance (km) Brightness Sun altitude
Rises 08:33:59 0° 225° (SW) 3,441 - -35.9°
Reaches altitude 10° 08:36:32 10° 231° (SW) 2,515 - -35.5°
Maximum altitude 08:42:05 45° 304° (NW) 1,183 - -34.6°
Exits shadow 08:44:28 31° 355° (N) 1,531 9.2 -34.2°
Drops below altitude 10° 08:47:48 10° 17° (NNE) 2,587 10.8 -33.7°
Sets 08:50:29 0° 23° (NNE) 3,549 11.7 -33.3°
